Location: ????? ???????
(25.7275°N, 32.5929°E)
Time: 11:00:50
(UTC+00:00)

Palapa 6 Rocket - Pass Details

Date: 02 March 2021
Orbit: 484 x 1216 km, 22.7° (Epoch: 16 April)

Event Time Altitude Azimuth Distance (km) Brightness Sun altitude
Rises 18:09:09 0° 268° (W) 3,910 8.2 -31.6°
Reaches altitude 10° 18:11:51 10° 266° (W) 3,023 7.4 -32.2°
Enters shadow 18:19:06 69° 207° (SSW) 1,277 4.5 -33.8°
